Location: Bytom
(50.3475°N, 18.9244°E)
Time: 07:10:50
(UTC+01:00)

ISS - Pass Details

Date: 01 February 2019
Orbit: 403 x 411 km, 51.6° (Epoch: 21 February)

Event Time Altitude Azimuth Distance (km) Brightness Sun altitude
Rises 18:54:59 0° 283° (WNW) 2,339 1.4 -22.1°
Reaches altitude 10° 18:57:04 10° 284° (WNW) 1,478 0.1 -22.4°
Enters shadow 18:59:34 48° 289° (WNW) 549 -2.9 -22.8°
